Overview Statistics Trail Chart Weather Telemetry Raw packets
 

This is the latest recevied weather packets stored in our database for station/object KI6SYE. If no packets are shown the sender has not sent any weather packets the latest 10 day(s).

<< 16 17 18 19 20 21 22 >>
Time Temp. Humidity Pressure Rain* Wind** Luminosity Snow
1788563377 23.33° C 77% 1012.3 hPa 0 mm - 400 W/m² -
1788563076 23.33° C 77% 1012.4 hPa 0 mm - 415 W/m² -
1788562771 23.89° C 76% 1012.4 hPa 0 mm - 427 W/m² -
1788562469 23.33° C 77% 1012.5 hPa 0 mm - 443 W/m² -
1788562168 23.33° C 77% 1012.4 hPa 0 mm - 274 W/m² -
1788561865 23.89° C 76% 1012.5 hPa 0 mm - 229 W/m² -
1788561564 23.33° C 75% 1012.3 hPa 0 mm - 69 W/m² -
1788561263 23.33° C 74% 1012.2 hPa 0 mm - 59 W/m² -
1788560960 23.33° C 74% 1012.3 hPa 0 mm - 51 W/m² -
1788560655 23.89° C 74% 1012.6 hPa 0 mm - 53 W/m² -
1788560354 23.33° C 74% 1012.6 hPa 0 mm - 57 W/m² -
1788560049 23.33° C 73% 1012.4 hPa 0 mm - 397 W/m² -
1788559744 23.89° C 73% 1012.7 hPa 0 mm - 449 W/m² -
1788559443 23.89° C 72% 1012.7 hPa 0 mm - 565 W/m² -
1788559139 23.89° C 73% 1012.6 hPa 0 mm - 583 W/m² -
1788558834 23.89° C 73% 1012.7 hPa 0 mm - 593 W/m² -
1788558530 23.89° C 73% 1012.5 hPa 0 mm - 606 W/m² -
1788558225 23.89° C 72% 1012.6 hPa 0 mm - 616 W/m² -
1788557924 23.89° C 74% 1012.6 hPa 0 mm - 624 W/m² -
1788557619 23.89° C 73% 1012.7 hPa 0 mm - 633 W/m² -
1788557315 23.89° C 73% 1012.8 hPa 0 mm - 641 W/m² -
1788557009 23.89° C 73% 1012.6 hPa 0 mm - 649 W/m² -
1788556704 23.89° C 72% 1012.6 hPa 0 mm - 659 W/m² -
1788556399 23.33° C 74% 1012.7 hPa 0 mm - 666 W/m² -
1788556088 23.89° C 74% 1012.6 hPa 0 mm - 675 W/m² -

* Rain latest hour (hover to see other rain measurements)
** Current wind speed in m/s (hover to see current wind gust speed)